User: anonymous   Login
Location: Unspecified
(0.0000°N, 0.0000°E)
Time: 04:48:33
(UTC+02:00)
Language:

Cosmos 1626 Rocket - Orbit

View from above orbital plane
View from above orbital plane
View from above satellite
View from above satellite

Ground track
Ground track

The orbit data is extracted from the following two-line orbital elements,

1 15495U 85009B   18169.55923951 +.00000053 +00000-0 +34359-5 0  9997
2 15495 082.5239 204.2836 0019643 197.1458 162.9096 14.83812815783202
Epoch (UTC): 18 June 2018 13:25:18
Eccentricity: 0.0019643
inclination: 82.5239°
perigee height: 603 km
apogee height: 631 km
right ascension of ascending node: 204.2836°
argument of perigee: 197.1458°
revolutions per day: 14.83812815
mean anomaly at epoch: 162.9096°
orbit number at epoch: 78320

The dashed part of the orbit path shows where the satellite is in the earth's shadow,  

DLR